Location: ????????
(55.0808°N, 38.5463°E)
Time: 01:46:19
(UTC+00:00)

Nimbus 3 Rocket - Pass Details

Date: 19 September 2024
Orbit: 1072 x 1131 km, 99.9° (Epoch: 03 October)

Event Time Altitude Azimuth Distance (km) Brightness Sun altitude
Rises 21:01:56 0° 19° (NNE) 3,920 9.0 -33.8°
Reaches altitude 10° 21:04:37 10° 25° (NNE) 2,951 8.1 -33.8°
Enters shadow 21:09:52 44° 69° (ENE) 1,461 5.9 -33.9°
